User: anonymous   Login
Location: Unspecified
(0.0000°N, 0.0000°E)
Time: 18:20:17
(UTC+00:00)
Language:

OBJECT W - Orbit

View from above orbital plane
View from above orbital plane
View from above satellite
View from above satellite

Ground track
Ground track

The orbit is defined by the following mean orbital elements,

1 57186U          26145.46160324 +.00000000 +00000-0 +30381-3 0 00002
2 57186  97.5161 211.5047 0018947 169.0255 191.1402 15.28458378    04
Epoch (UTC): 25 May 2026 11:04:42
Eccentricity: 0.0018947
inclination: 97.5161°
perigee height: 467 km
apogee height: 493 km
right ascension of ascending node: 211.5047°
argument of perigee: 169.0255°
revolutions per day: 15.28458378
mean anomaly at epoch: 191.1402°

The dashed part of the orbit path shows where the satellite is in the earth's shadow,  

DLR